Lihue, HI (96766)

8:23 AM HST on February 06, 2016 (GMT -1000)
Uluko | | Change Station
CLOSE
Current Station
Personal Weather Station
Location: Lihue, HI
Elevation: 187 ft
Nearby Weather Stations
Active Advisory: Wind Advisory Active Notice: Record Report

Elev 187 ft 21.96 °N, 159.37 °W | Updated 9 seconds ago

Clear
Clear
67.5 °F
Feels Like 67.5 °F
N
0.0
Wind Variable Wind from SW
Gusts 3.0 mph

Today
High -- | Low -- °F
--% Chance of Precip.
Yesterday
High -- | Low -- °F
Precip. -- in
Pressure 30.00 in
Visibility 10.0 miles
Clouds Clear
Dew Point 64 °F
Humidity 88%
Rainfall 0.00 in
Snow Depth Not available.
7:13 AM 6:29 PM
Waning Crescent, 4% visible
METAR PHLI 061753Z 29007KT 10SM CLR 19/17 A3000 RMK AO2 SLP158 T01940167 10206 20183 53012
Pressure 30.00 in
Visibility 10.0 miles
Clouds Clear
Dew Point 64 °F
Humidity 88%
Rainfall 0.00 in
Snow Depth Not available.
7:13 AM 6:29 PM
Waning Crescent, 4% visible
METAR PHLI 061753Z 29007KT 10SM CLR 19/17 A3000 RMK AO2 SLP158 T01940167 10206 20183 53012

10-Day Weather Forecast

Almanac

Astronomy

Feb. 06, 2016 Rise Set
Actual Time
Civil Twilight
Nautical Twilight
Astronomical Twilight
Moon
Length of Visible Light
Length of Day
Tomorrow will be .
, % of the Moon is Illuminated

Today's Extremes

State Highs State Lows

Community

WunderPhotos

Upload Photos

1,891,030 photos uploaded!

WunderBlog® & News

Nearby

Air Quality

  Air Quality AQ Index Pollutant
Not available.

Snow Depth

Station Depth Elevation

Earthquake Activity

City Distance Mag. Time & Date
Minimum magnitude displayed is 2.5.

Coastal Water Temperatures

Place Temperature

Stations

Nearby Weather Stations

Station Location Temp. Windchill Dew Point Humidity Wind Precip. Elev Updated Type
                   

Watches & Warnings

Wind Advisory
Issued: 3:32 AM HST Feb. 6, 2016 – National Weather Service

... Wind Advisory in effect from 2 PM this afternoon to 6 PM HST
Sunday...

The National Weather Service in Honolulu has issued a Wind
Advisory... which is in effect from 2 PM this afternoon to 6 PM
HST Sunday.

* Timing... late this afternoon through Sunday.

* Winds... north up to 30 mph with gusts up to 55 mph. Winds will
be strongest downwind of higher terrain and in north facing
valleys.

* Impacts... motorists... especially those in high profile
vehicles... are urged to drive with extreme caution. Lightweight
outdoor objects may be blown around... and should be secured
before winds increase.

Precautionary/preparedness actions...

A Wind Advisory means that sustained winds of at least 30 mph...
or gusts of at least 50 mph... are expected. Motorists should use
extra caution.